Tracking 19792 objects as of 17-Jul-2019
HD Live streaming from Space Station
objects crossing your sky now

FENGYUN 1C DEB

Track FENGYUN 1C DEB now!
10-day predictions


NORAD ID: 32432
Int'l Code: 1999-025DAU
Perigee: 636.2 km
Apogee: 989.0 km
Inclination: 98.4 °
Period: 101.0 minutes
Semi major axis: 7183 km
RCS: 0.0125 m2 (small)
Launch date: May 10, 1999
Source: People's Republic of China (PRC)
Launch site: Taiyaun Space Center, China (TSC)

Note: This is SATELLITE DEBRIS
aabbcc
Your satellite tracking list
Your tracking list is empty




NASA's NSSDC Master Catalog

Two Line Element Set (TLE):
1 32432U 99025DAU 19197.06097164  .00000296  00000-0  10436-3 0  9993
2 32432  98.3585 299.0039 0245543  90.6649 272.2671 14.25899782601990
Source of the keplerian elements: AFSPC